Vorticity
7 7 7 7 6 5 4 4 5 6 7 8 9 10 11 11 10 10 10 10 9 8 7 6 5 3 1 0 -1 -2 -3 -2 -1 1 3 5 6 7 8 8 9 9 9 9 10 10 11 12 12 13 13 14 15 17 18 18 18 17 15 13 11 11 12 13 15 15 13 11 9
7 7 6 6 5 4 3 3 5 7 9 10 11 11 11 12 11 10 10 10 9 8 6 5 3 1 0 -1 -1 -1 -1 1 3 4 6 8 9 10 11 11 12 12 13 13 13 13 14 14 14 14 13 14 15 16 17 18 18 18 17 15 14 13 13 13 14 15 15 14 11
6 6 5 5 4 3 4 5 6 8 9 11 12 13 13 13 12 11 10 9 7 5 3 2 1 0 -0 -0 0 1 3 5 6 8 9 10 11 12 13 13 14 14 15 15 15 15 15 15 15 14 13 13 14 15 16 16 18 18 18 17 16 15 14 13 14 15 15 16 14
7 6 5 4 4 5 5 6 7 9 11 11 12 13 13 12 11 9 7 5 3 2 1 0 0 1 1 2 3 5 6 8 9 10 10 11 12 13 13 14 14 15 16 16 16 16 16 16 15 14 13 12 13 13 13 13 15 17 17 17 17 17 15 14 14 14 14 15 15
7 6 5 4 4 5 6 8 9 10 11 12 11 11 10 9 7 5 3 1 0 0 1 1 2 3 5 6 7 8 9 10 11 11 11 11 12 12 13 13 14 14 15 15 16 16 15 15 14 13 12 11 11 10 10 10 13 14 15 16 18 18 17 16 14 14 14 14 15
5 4 3 3 4 5 7 10 12 12 11 11 10 8 7 6 4 2 1 0 1 2 3 4 6 7 8 10 11 11 11 12 12 12 12 12 12 12 12 12 13 13 13 14 14 14 14 13 12 11 10 8 8 8 8 9 10 11 12 14 16 17 17 16 15 14 14 14 14
3 2 2 3 5 7 10 12 12 12 10 9 8 6 3 2 1 1 1 2 3 5 6 8 10 11 12 13 13 13 13 13 13 13 13 12 12 12 12 12 12 12 12 12 11 11 11 11 10 9 8 7 5 5 5 6 7 8 10 11 13 15 16 16 15 14 14 13 13
1 2 3 5 8 11 12 13 12 10 8 6 5 3 1 1 1 2 3 5 7 9 10 12 13 14 15 15 15 15 15 15 14 14 14 13 12 12 12 11 11 11 10 10 9 9 9 9 8 7 7 6 5 4 4 4 5 6 7 9 10 12 13 14 14 14 13 13 13
2 4 6 9 12 13 13 12 10 7 5 3 2 1 2 3 4 5 7 9 11 12 13 14 14 15 15 15 15 16 16 16 15 15 15 14 13 12 12 11 11 10 9 9 8 8 8 7 7 6 6 5 5 4 4 4 4 4 5 7 9 10 11 12 12 13 13 12 12
4 7 10 13 13 13 11 8 6 4 2 2 2 3 5 6 7 9 11 12 12 13 14 14 15 15 15 16 16 16 17 17 17 16 16 16 15 14 13 12 11 10 10 9 8 8 7 7 7 7 7 6 6 6 5 5 5 5 5 6 8 10 11 11 11 12 12 11 11
9 12 13 14 11 9 6 4 3 2 3 4 5 7 8 10 11 12 13 13 14 15 16 15 16 16 17 17 17 18 18 18 18 18 17 17 17 16 15 14 13 12 11 11 10 9 9 8 8 8 8 8 8 8 8 7 7 7 7 7 8 9 11 11 11 11 11 11 11
12 13 13 11 7 5 4 3 4 5 7 8 9 11 12 13 14 15 15 16 17 17 17 17 18 18 18 18 18 18 17 17 17 17 17 17 17 16 16 15 15 14 14 13 12 11 11 10 10 10 10 10 10 10 10 10 10 10 9 9 9 10 11 12 12 12 11 11 11
12 11 8 6 5 4 5 7 8 10 11 12 13 14 15 16 16 16 17 17 18 18 18 18 18 18 17 17 16 16 15 14 14 13 13 13 14 14 14 14 14 14 14 14 14 14 13 13 13 12 12 12 12 11 11 11 12 12 12 11 11 11 12 12 12 12 12 12 12
9 7 5 5 6 7 9 11 12 13 13 14 16 16 17 17 17 17 17 17 17 17 17 17 16 15 15 14 13 12 11 10 10 10 10 10 10 10 11 11 12 12 13 13 13 14 14 14 14 14 14 14 14 13 13 13 13 13 13 13 13 13 13 12 12 12 12 13 13
6 6 6 7 9 11 13 14 14 15 16 17 17 17 17 16 16 16 16 16 15 15 15 14 13 12 11 10 9 9 9 8 8 8 8 8 8 8 9 9 10 10 10 11 12 12 13 13 13 14 14 14 14 14 14 14 13 13 13 13 13 13 13 13 13 12 12 13 13
6 7 9 11 13 14 15 15 16 16 17 17 16 16 15 15 14 14 14 14 13 13 12 11 11 10 9 8 8 8 8 8 8 8 8 9 9 9 9 9 10 10 10 10 11 11 11 12 12 12 13 13 13 13 13 13 13 13 13 13 13 13 13 13 13 13 12 12 12
9 11 13 14 14 15 16 16 17 17 16 15 14 13 13 13 13 13 12 12 11 11 10 9 9 9 9 9 9 9 9 10 10 10 10 11 11 11 11 11 11 11 11 11 11 11 12 12 12 12 12 12 12 12 12 12 12 12 12 12 12 12 13 13 13 13 13 12 12
13 14 14 15 15 16 17 17 16 15 14 13 12 11 11 11 11 11 11 10 10 10 9 9 10 10 10 11 11 11 12 12 13 13 13 13 13 13 13 13 13 13 13 13 13 13 13 13 13 13 12 12 12 12 11 11 11 11 11 11 11 11 11 12 12 13 13 13 13
14 14 14 15 16 16 16 15 14 13 11 10 10 10 10 11 10 10 10 10 10 10 10 11 11 12 12 13 13 14 14 14 15 15 15 15 15 15 15 16 16 16 16 16 15 15 15 15 15 14 14 13 13 12 12 11 11 11 11 10 10 10 11 11 11 12 12 13 13
13 14 15 16 16 15 14 13 11 10 10 10 10 10 10 10 10 10 10 10 10 11 11 12 13 13 14 14 14 15 15 15 16 16 17 17 17 17 17 18 18 18 18 18 18 17 17 17 16 16 15 15 14 13 13 12 12 12 11 11 11 11 11 11 11 11 12 13 13
12 13 15 15 14 13 12 10 9 9 9 10 10 10 10 10 10 10 10 11 11 12 13 13 14 14 14 15 15 15 16 16 17 17 18 18 18 19 19 19 19 19 19 19 19 19 19 18 18 17 17 16 16 15 15 14 14 13 13 13 12 12 12 11 12 12 12 12 13
12 13 14 13 12 11 9 9 9 9 10 10 11 11 10 10 11 11 11 12 13 13 13 14 14 14 15 15 16 16 17 17 18 18 19 19 20 20 20 20 19 19 19 19 19 18 18 18 18 18 17 17 17 17 17 16 16 15 15 14 14 14 13 13 13 13 13 13 13
12 13 12 11 10 9 8 9 9 10 11 11 11 11 11 11 11 12 12 13 13 13 14 14 14 14 15 15 16 17 18 18 19 19 20 20 20 20 19 19 18 18 17 17 16 16 16 16 16 16 16 16 17 17 17 18 18 17 17 16 16 15 15 15 15 15 14 14 14
12 12 10 9 8 8 9 9 10 11 11 11 11 11 11 12 12 13 13 13 13 13 13 13 14 15 15 16 17 17 18 19 20 20 20 20 19 18 17 16 15 15 14 14 14 13 13 13 13 13 13 13 14 15 16 17 18 18 18 18 18 17 17 17 17 16 16 16 16
11 10 9 8 8 8 9 10 11 12 12 11 11 12 12 13 13 13 13 13 13 13 13 13 14 15 15 16 17 18 18 19 19 20 19 19 17 16 15 13 13 12 12 12 12 13 13 13 12 11 11 11 11 12 13 15 16 17 19 19 19 19 19 19 19 18 18 18 18
9 8 7 7 8 9 10 11 12 12 12 12 12 12 13 13 13 13 13 13 13 13 13 14 14 15 15 16 17 17 18 18 18 18 17 16 15 14 13 12 12 12 13 13 14 15 16 16 16 15 14 13 12 12 12 13 14 16 17 19 19 20 19 19 20 20 20 20 19
7 7 7 7 9 10 11 12 12 12 12 12 12 13 13 13 13 13 13 13 13 13 13 14 15 15 15 15 15 16 16 16 16 15 15 14 13 13 13 13 13 15 16 17 19 20 21 21 21 21 20 18 17 15 14 13 14 15 16 17 19 19 19 19 19 20 20 20 20
5 6 7 8 9 11 11 12 12 12 12 12 12 13 13 13 13 13 13 12 13 13 14 14 14 15 15 14 14 14 14 15 15 15 14 14 14 15 15 16 17 18 20 22 23 24 25 25 26 26 25 24 23 21 19 17 16 15 15 16 17 18 19 19 19 19 19 19 20
4 6 7 9 10 11 12 13 12 12 12 12 12 12 13 13 13 12 12 12 12 13 14 14 14 14 13 13 13 14 14 15 15 16 16 16 17 18 18 19 20 22 23 25 25 26 26 27 27 27 28 27 26 25 24 22 20 19 17 16 16 17 17 17 18 18 18 18 19
5 7 8 10 11 12 13 13 12 12 11 11 12 12 13 13 12 12 11 12 12 13 13 13 13 13 13 13 14 15 16 17 18 19 19 20 20 20 21 21 22 23 24 25 25 25 25 26 26 27 27 28 27 27 26 25 24 22 21 19 18 17 16 16 16 16 17 17 18
6 8 10 11 12 13 13 12 12 11 11 11 11 12 13 13 12 11 11 11 11 12 12 13 13 13 13 14 15 16 18 20 21 21 22 22 22 21 21 22 22 23 24 24 24 24 24 24 25 25 26 27 27 27 27 26 26 25 24 22 21 19 18 16 16 15 15 15 16
7 9 11 12 13 13 13 12 11 11 10 10 11 12 12 12 11 10 10 10 11 11 12 12 12 13 14 15 17 19 20 22 23 23 23 22 22 21 21 22 22 23 24 24 23 23 23 23 23 23 24 25 25 25 25 25 25 25 24 24 23 22 20 18 17 15 14 13 14
9 11 12 13 13 13 13 12 11 10 10 10 11 12 12 12 11 10 9 9 10 10 11 12 12 14 15 17 19 21 22 23 23 23 23 22 22 21 21 22 23 23 23 23 22 21 21 20 20 20 21 21 22 22 22 22 23 23 23 23 23 23 22 21 19 17 15 13 12
11 12 13 13 13 13 12 11 10 9 9 10 11 12 12 12 10 9 8 8 9 10 11 12 13 15 17 19 20 22 23 23 23 23 22 22 22 22 22 23 22 21 20 19 18 17 16 16 16 16 16 17 17 17 17 18 18 19 20 21 22 22 22 22 21 20 18 15 13
12 13 13 13 13 12 12 11 10 9 9 10 11 12 12 11 10 8 8 8 8 9 11 12 14 16 18 20 21 22 23 23 23 22 23 23 23 23 23 22 20 18 16 14 13 12 11 11 11 12 13 13 13 13 13 14 15 16 17 18 19 20 21 22 22 21 20 18 16
13 13 13 13 13 12 11 10 9 9 9 10 11 12 12 11 9 8 7 7 8 9 11 13 15 17 19 21 22 22 22 22 22 23 24 24 24 23 22 19 17 15 13 11 9 8 7 8 8 9 10 11 11 12 12 13 14 14 15 16 17 18 19 20 21 21 21 21 19
13 13 13 13 12 12 11 10 9 9 9 10 11 12 12 11 9 7 6 6 8 9 12 14 16 19 20 21 21 21 21 22 23 24 25 26 24 22 19 16 15 13 11 8 7 5 5 6 7 9 10 11 12 12 13 14 14 15 15 16 16 17 18 19 19 20 20 21 21
13 13 13 13 12 11 10 9 9 9 10 11 12 12 12 10 8 7 6 6 7 10 13 15 17 19 21 21 21 21 21 23 24 25 25 25 22 19 16 14 13 11 8 6 5 4 4 6 8 12 14 16 15 14 14 14 14 15 15 15 16 16 17 18 18 18 19 20 21
12 13 13 13 12 11 10 9 9 9 10 11 12 12 12 10 8 6 6 6 8 10 13 16 18 20 21 21 21 21 22 24 25 25 24 22 19 17 14 12 11 8 6 4 3 4 5 8 12 16 20 21 19 18 17 15 15 15 14 14 14 15 16 17 18 18 19 19 20
12 13 13 13 12 11 10 9 9 9 10 12 13 13 11 9 7 6 6 6 8 10 13 17 19 21 21 21 21 22 23 25 25 24 21 19 17 15 14 12 9 6 4 3 3 5 8 13 17 21 24 24 23 21 19 17 16 15 15 15 14 14 15 17 18 19 20 21 22
13 13 13 13 11 11 10 9 9 10 11 13 13 13 11 9 7 6 6 7 8 11 14 17 20 21 22 22 22 23 24 25 25 22 19 17 15 14 12 10 7 5 4 4 6 9 13 18 22 25 26 26 25 24 21 18 18 18 18 17 15 14 14 15 17 20 22 24 25
Height
3021 3020 3018 3016 3015 3013 3012 3011 3009 3008 3006 3005 3004 3002 3001 3000 2999 2998 2998 2997 2996 2995 2994 2993 2993 2992 2991 2990 2989 2988 2987 2986 2986 2985 2984 2983 2981 2981 2980 2979 2978 2977 2976 2975 2974 2973 2972 2971 2971 2971 2971 2971 2971 2972 2973 2974 2975 2975 2975 2975 2975 2975 2975 2975 2975 2976 2976 2977 2977
3018 3017 3015 3014 3012 3011 3009 3008 3006 3005 3004 3002 3001 3000 2999 2998 2997 2996 2995 2994 2993 2992 2991 2990 2989 2988 2987 2986 2985 2984 2982 2981 2981 2980 2979 2978 2976 2976 2975 2974 2973 2972 2972 2971 2970 2969 2968 2967 2967 2966 2966 2966 2967 2967 2968 2969 2970 2970 2971 2971 2971 2971 2971 2971 2971 2971 2972 2973 2973
3016 3014 3012 3011 3010 3008 3006 3005 3004 3003 3001 3000 2999 2997 2996 2995 2994 2993 2992 2991 2990 2989 2988 2986 2985 2984 2983 2981 2980 2979 2978 2976 2975 2974 2973 2972 2971 2971 2970 2969 2968 2967 2966 2966 2965 2964 2963 2963 2962 2962 2961 2961 2962 2962 2963 2963 2964 2965 2966 2966 2966 2966 2966 2966 2966 2967 2968 2968 2969
3012 3011 3010 3008 3006 3005 3004 3002 3001 3000 2998 2997 2996 2995 2993 2992 2991 2990 2988 2987 2986 2985 2984 2982 2981 2980 2978 2977 2976 2974 2973 2971 2970 2969 2968 2967 2966 2966 2965 2963 2963 2962 2961 2961 2960 2960 2959 2958 2957 2957 2957 2957 2957 2957 2958 2959 2959 2960 2961 2961 2962 2962 2962 2962 2962 2962 2963 2964 2964
3010 3008 3006 3005 3003 3002 3001 2999 2998 2996 2995 2994 2993 2991 2990 2989 2987 2986 2984 2983 2982 2981 2979 2978 2976 2975 2973 2972 2971 2969 2968 2967 2965 2964 2963 2961 2961 2960 2959 2958 2958 2957 2956 2956 2955 2955 2954 2954 2953 2952 2952 2952 2952 2953 2953 2954 2954 2955 2956 2956 2957 2958 2958 2958 2958 2958 2959 2959 2959
3006 3005 3003 3002 3001 2999 2997 2996 2995 2993 2992 2991 2989 2988 2986 2985 2984 2982 2981 2979 2977 2976 2975 2973 2971 2970 2968 2967 2966 2964 2963 2962 2961 2959 2958 2956 2956 2955 2954 2953 2952 2952 2951 2951 2950 2950 2949 2949 2948 2948 2948 2948 2948 2948 2948 2949 2949 2950 2950 2951 2952 2953 2954 2954 2953 2954 2954 2954 2955
3003 3002 3000 2999 2997 2996 2994 2993 2991 2990 2989 2987 2986 2984 2982 2981 2980 2978 2976 2975 2973 2971 2970 2968 2967 2965 2964 2962 2961 2959 2958 2957 2956 2954 2953 2952 2951 2950 2949 2948 2948 2947 2946 2946 2945 2945 2944 2944 2943 2943 2943 2943 2943 2943 2944 2944 2944 2944 2945 2946 2947 2948 2949 2949 2949 2949 2950 2950 2950
3000 2999 2997 2996 2994 2993 2991 2990 2988 2987 2985 2984 2982 2981 2979 2977 2976 2974 2972 2970 2969 2967 2965 2964 2962 2961 2959 2957 2956 2955 2953 2952 2951 2950 2949 2947 2946 2945 2944 2943 2943 2942 2942 2941 2941 2940 2940 2939 2939 2938 2938 2938 2938 2938 2939 2939 2939 2939 2939 2940 2941 2943 2944 2945 2945 2945 2945 2945 2945
2997 2996 2995 2993 2991 2990 2988 2986 2985 2983 2982 2980 2978 2977 2975 2973 2971 2970 2967 2966 2964 2962 2961 2959 2958 2956 2955 2953 2951 2950 2949 2948 2946 2945 2944 2943 2942 2941 2940 2939 2938 2938 2937 2936 2936 2936 2935 2934 2933 2933 2933 2933 2933 2933 2933 2934 2934 2934 2934 2934 2936 2937 2938 2939 2940 2940 2941 2940 2940
2995 2993 2991 2990 2988 2986 2985 2983 2981 2980 2978 2976 2975 2973 2971 2969 2967 2966 2963 2961 2960 2958 2956 2955 2953 2951 2950 2948 2947 2946 2945 2943 2942 2941 2940 2938 2938 2936 2936 2935 2934 2933 2933 2932 2932 2931 2930 2929 2928 2928 2928 2928 2928 2928 2928 2929 2929 2928 2928 2929 2930 2931 2932 2933 2935 2935 2935 2935 2936
2992 2990 2988 2987 2985 2983 2981 2979 2978 2976 2974 2973 2971 2969 2967 2965 2963 2961 2959 2957 2955 2953 2952 2950 2949 2946 2945 2944 2942 2941 2940 2939 2937 2936 2935 2934 2933 2932 2931 2931 2930 2929 2928 2928 2927 2926 2925 2924 2923 2923 2922 2922 2923 2923 2923 2923 2923 2923 2923 2923 2924 2925 2926 2927 2929 2930 2930 2930 2931
2989 2987 2985 2983 2981 2979 2977 2976 2974 2972 2970 2968 2967 2965 2963 2961 2959 2957 2955 2953 2951 2949 2947 2946 2944 2942 2941 2939 2938 2936 2935 2934 2933 2931 2931 2930 2929 2928 2927 2926 2926 2925 2924 2923 2923 2922 2921 2919 2918 2918 2917 2917 2917 2917 2917 2917 2917 2917 2917 2917 2918 2919 2920 2921 2923 2924 2925 2925 2925
2985 2983 2981 2979 2977 2976 2974 2971 2970 2968 2966 2965 2963 2961 2959 2957 2955 2953 2951 2949 2947 2945 2943 2942 2940 2939 2937 2935 2934 2932 2931 2930 2929 2927 2926 2925 2925 2924 2923 2922 2921 2920 2920 2919 2918 2917 2916 2915 2914 2913 2913 2912 2912 2912 2912 2912 2912 2912 2911 2912 2913 2913 2914 2915 2917 2918 2919 2920 2920
2981 2980 2978 2976 2974 2971 2970 2967 2966 2964 2962 2961 2959 2957 2955 2953 2951 2950 2947 2945 2943 2941 2940 2938 2936 2935 2933 2931 2930 2929 2927 2926 2924 2923 2922 2921 2920 2919 2918 2917 2916 2916 2915 2914 2913 2912 2911 2910 2909 2909 2908 2907 2907 2907 2907 2907 2906 2906 2906 2906 2907 2908 2909 2910 2911 2912 2913 2914 2914
2978 2976 2974 2972 2970 2968 2966 2964 2962 2960 2958 2956 2955 2953 2951 2949 2948 2946 2944 2941 2940 2938 2936 2934 2933 2931 2930 2928 2926 2925 2923 2921 2920 2919 2917 2916 2916 2915 2913 2912 2912 2911 2910 2909 2908 2907 2906 2905 2904 2904 2903 2902 2902 2902 2902 2902 2901 2901 2901 2901 2901 2902 2903 2904 2905 2906 2907 2908 2908
2974 2972 2971 2968 2966 2964 2962 2960 2958 2956 2955 2953 2951 2949 2948 2946 2944 2942 2940 2938 2936 2934 2932 2931 2929 2927 2926 2925 2923 2921 2919 2917 2916 2914 2912 2911 2910 2909 2908 2907 2906 2906 2905 2904 2903 2902 2901 2901 2900 2899 2898 2897 2897 2896 2896 2896 2896 2896 2896 2896 2896 2897 2897 2898 2899 2901 2901 2902 2903
2971 2969 2967 2965 2963 2961 2959 2957 2955 2953 2951 2949 2947 2946 2944 2942 2940 2938 2936 2935 2932 2930 2928 2927 2925 2923 2922 2920 2919 2917 2915 2912 2911 2909 2908 2906 2905 2904 2903 2901 2901 2900 2899 2898 2897 2896 2896 2896 2895 2894 2893 2892 2891 2891 2891 2891 2891 2891 2890 2891 2891 2891 2892 2893 2894 2895 2895 2896 2897
2967 2966 2963 2961 2959 2957 2955 2953 2951 2949 2947 2946 2944 2942 2941 2939 2936 2935 2933 2931 2929 2926 2924 2922 2921 2920 2918 2916 2914 2912 2911 2908 2906 2904 2903 2901 2900 2898 2897 2896 2895 2894 2893 2892 2891 2891 2890 2890 2889 2889 2888 2887 2886 2886 2886 2885 2885 2885 2885 2885 2885 2886 2886 2887 2888 2889 2890 2891 2891
2964 2962 2960 2958 2956 2954 2952 2950 2948 2946 2944 2942 2941 2939 2937 2935 2933 2931 2929 2927 2925 2923 2921 2918 2917 2915 2914 2911 2909 2908 2906 2903 2901 2899 2898 2896 2895 2893 2891 2890 2889 2888 2887 2886 2886 2885 2884 2884 2883 2883 2882 2881 2881 2880 2880 2880 2879 2879 2879 2880 2880 2880 2881 2881 2882 2883 2884 2885 2886
2961 2959 2957 2955 2953 2951 2949 2947 2945 2943 2941 2939 2937 2935 2933 2931 2929 2927 2925 2923 2921 2919 2917 2915 2912 2911 2909 2907 2905 2903 2901 2899 2896 2894 2892 2891 2889 2888 2886 2885 2883 2882 2881 2880 2880 2879 2878 2878 2877 2877 2876 2876 2875 2874 2874 2874 2874 2873 2874 2874 2874 2875 2875 2876 2876 2877 2878 2879 2880
2958 2956 2954 2952 2950 2948 2946 2944 2942 2940 2938 2936 2934 2932 2930 2928 2926 2923 2921 2919 2917 2915 2913 2911 2908 2906 2904 2902 2900 2898 2896 2894 2891 2889 2887 2886 2884 2882 2881 2880 2878 2876 2876 2875 2874 2873 2872 2872 2871 2871 2870 2870 2869 2868 2868 2868 2868 2867 2868 2868 2868 2869 2869 2870 2871 2871 2872 2873 2874
2955 2953 2951 2949 2947 2945 2943 2941 2939 2937 2935 2932 2931 2928 2926 2924 2922 2920 2918 2916 2914 2911 2909 2906 2904 2902 2899 2897 2895 2893 2891 2889 2887 2885 2883 2881 2879 2877 2876 2875 2873 2871 2870 2870 2869 2868 2867 2866 2866 2865 2864 2864 2863 2862 2862 2862 2861 2861 2861 2862 2862 2863 2863 2864 2865 2866 2866 2867 2868
2952 2950 2948 2946 2944 2942 2940 2938 2936 2933 2931 2929 2927 2925 2922 2920 2918 2916 2914 2912 2910 2907 2905 2902 2900 2897 2895 2893 2891 2888 2886 2884 2882 2880 2878 2876 2874 2873 2871 2870 2868 2866 2865 2865 2863 2862 2861 2861 2860 2859 2859 2858 2857 2857 2857 2856 2856 2856 2856 2856 2856 2856 2857 2858 2859 2860 2860 2861 2862
2949 2947 2945 2943 2941 2939 2937 2935 2932 2930 2927 2925 2923 2921 2918 2916 2914 2912 2910 2908 2906 2903 2901 2898 2896 2893 2891 2889 2886 2884 2881 2879 2877 2875 2874 2872 2870 2868 2866 2865 2863 2862 2861 2860 2859 2857 2856 2855 2854 2854 2853 2853 2852 2851 2851 2851 2850 2850 2850 2850 2850 2851 2851 2852 2852 2853 2855 2856 2857
2946 2944 2942 2940 2938 2936 2934 2931 2929 2926 2924 2921 2919 2917 2915 2913 2911 2908 2906 2904 2901 2899 2896 2894 2891 2889 2887 2884 2882 2880 2877 2875 2872 2870 2869 2867 2866 2864 2862 2860 2859 2857 2856 2855 2854 2853 2851 2850 2849 2848 2848 2847 2846 2846 2845 2845 2845 2845 2844 2844 2844 2845 2845 2846 2846 2847 2849 2850 2851
2943 2941 2939 2937 2935 2933 2930 2928 2925 2923 2920 2918 2916 2913 2911 2909 2907 2905 2902 2900 2897 2895 2892 2890 2887 2885 2882 2880 2878 2876 2873 2871 2868 2866 2864 2862 2861 2859 2857 2856 2854 2852 2851 2850 2848 2847 2846 2845 2844 2843 2842 2841 2841 2840 2840 2839 2839 2839 2839 2838 2839 2839 2839 2840 2841 2842 2843 2844 2845
2941 2938 2936 2934 2932 2929 2927 2924 2922 2919 2917 2914 2912 2910 2908 2906 2903 2901 2898 2896 2893 2891 2888 2886 2883 2881 2878 2876 2873 2871 2869 2866 2864 2862 2860 2857 2856 2854 2852 2851 2849 2847 2846 2844 2843 2841 2841 2839 2838 2837 2836 2836 2835 2834 2834 2833 2833 2833 2833 2833 2833 2833 2834 2834 2835 2836 2837 2838 2839
2937 2935 2933 2930 2928 2926 2923 2921 2918 2916 2913 2911 2909 2906 2904 2902 2900 2897 2895 2892 2890 2887 2884 2882 2879 2877 2874 2871 2869 2867 2864 2862 2860 2857 2855 2853 2851 2849 2847 2846 2844 2842 2841 2839 2838 2836 2835 2834 2833 2832 2831 2830 2829 2828 2828 2828 2827 2828 2828 2827 2828 2828 2828 2829 2830 2831 2831 2832 2833
2934 2932 2929 2927 2925 2922 2920 2917 2915 2913 2910 2908 2906 2903 2901 2899 2896 2894 2891 2888 2886 2883 2880 2878 2875 2873 2870 2867 2865 2862 2860 2857 2855 2853 2850 2848 2846 2844 2842 2841 2839 2837 2836 2834 2833 2831 2830 2829 2828 2827 2826 2826 2825 2824 2823 2822 2822 2822 2822 2822 2822 2823 2823 2824 2825 2825 2826 2827 2828
2931 2928 2926 2923 2921 2919 2917 2914 2912 2910 2907 2905 2902 2900 2898 2895 2893 2890 2888 2885 2882 2879 2877 2874 2871 2869 2866 2863 2861 2858 2855 2853 2850 2848 2845 2843 2841 2839 2837 2836 2834 2832 2831 2830 2829 2827 2826 2825 2824 2823 2822 2821 2820 2819 2818 2817 2817 2817 2817 2817 2817 2818 2819 2819 2820 2821 2822 2823 2824
2928 2925 2923 2920 2918 2916 2913 2911 2909 2906 2904 2902 2899 2897 2894 2892 2889 2887 2884 2881 2878 2876 2873 2871 2868 2865 2862 2859 2856 2853 2851 2848 2846 2843 2840 2838 2836 2834 2833 2832 2830 2829 2828 2826 2825 2824 2823 2821 2820 2819 2818 2817 2816 2815 2814 2812 2812 2812 2812 2812 2812 2813 2814 2815 2816 2817 2818 2819 2820
2924 2922 2920 2917 2915 2912 2910 2908 2906 2903 2901 2899 2896 2894 2891 2889 2886 2884 2881 2878 2875 2872 2870 2867 2864 2861 2858 2855 2852 2849 2846 2843 2841 2838 2836 2834 2832 2830 2829 2828 2827 2826 2825 2823 2822 2821 2820 2818 2817 2816 2815 2814 2813 2811 2810 2809 2808 2807 2807 2807 2808 2808 2809 2810 2811 2812 2813 2814 2815
2921 2919 2916 2914 2911 2909 2907 2905 2903 2900 2898 2896 2893 2891 2888 2886 2883 2881 2878 2875 2872 2869 2866 2863 2860 2856 2854 2851 2847 2845 2842 2839 2837 2835 2832 2831 2828 2826 2825 2825 2824 2823 2821 2820 2819 2818 2816 2816 2814 2813 2812 2811 2810 2808 2806 2805 2804 2804 2803 2803 2803 2804 2805 2806 2806 2807 2809 2810 2811
2918 2916 2913 2911 2909 2906 2904 2902 2900 2897 2895 2892 2890 2888 2885 2882 2880 2877 2874 2871 2868 2866 2862 2859 2856 2853 2850 2846 2843 2840 2837 2835 2833 2831 2829 2827 2825 2823 2822 2821 2821 2820 2819 2817 2816 2815 2814 2813 2812 2811 2810 2808 2807 2805 2803 2802 2801 2800 2799 2799 2799 2800 2801 2801 2802 2803 2804 2805 2806
2915 2912 2910 2908 2906 2904 2901 2899 2896 2894 2891 2889 2887 2884 2882 2879 2877 2874 2871 2868 2865 2862 2859 2856 2853 2850 2846 2843 2840 2836 2833 2831 2829 2827 2826 2824 2822 2821 2819 2819 2818 2817 2816 2815 2813 2812 2811 2810 2809 2808 2807 2806 2804 2802 2801 2799 2798 2797 2796 2796 2796 2796 2796 2797 2798 2798 2799 2800 2801
2912 2909 2907 2905 2903 2901 2898 2896 2893 2891 2888 2886 2883 2881 2879 2876 2874 2871 2868 2865 2861 2858 2856 2853 2850 2846 2843 2839 2836 2833 2831 2828 2826 2824 2822 2821 2819 2818 2816 2816 2815 2814 2813 2812 2810 2809 2808 2807 2806 2806 2804 2803 2801 2799 2797 2796 2795 2793 2792 2792 2791 2792 2792 2793 2793 2794 2795 2796 2796
2909 2906 2904 2902 2900 2898 2895 2893 2890 2888 2885 2883 2881 2878 2875 2873 2870 2868 2865 2861 2858 2855 2852 2849 2846 2842 2839 2836 2833 2830 2828 2825 2823 2821 2819 2818 2816 2815 2814 2813 2812 2811 2811 2809 2808 2806 2806 2805 2804 2803 2802 2801 2798 2796 2795 2793 2792 2790 2789 2789 2788 2788 2789 2789 2789 2790 2790 2791 2791
2906 2904 2901 2899 2897 2895 2892 2890 2887 2885 2882 2880 2877 2875 2872 2870 2867 2864 2861 2858 2855 2851 2848 2845 2842 2839 2836 2832 2830 2827 2825 2823 2821 2818 2816 2815 2814 2813 2811 2810 2809 2808 2808 2807 2806 2804 2803 2802 2801 2801 2800 2798 2795 2793 2792 2790 2788 2787 2786 2785 2785 2785 2785 2785 2785 2785 2785 2786 2787
2904 2901 2899 2896 2894 2892 2889 2887 2884 2882 2879 2877 2874 2872 2869 2866 2864 2861 2858 2856 2852 2848 2845 2841 2839 2836 2832 2829 2826 2824 2822 2821 2819 2817 2815 2813 2811 2810 2809 2807 2806 2805 2805 2804 2803 2802 2801 2800 2799 2798 2797 2795 2793 2791 2788 2786 2785 2783 2782 2781 2781 2781 2781 2781 2781 2781 2781 2781 2783
2901 2899 2896 2894 2891 2889 2886 2884 2881 2879 2876 2874 2871 2869 2866 2864 2861 2858 2856 2852 2849 2846 2842 2838 2835 2832 2829 2826 2823 2821 2819 2818 2817 2815 2813 2811 2810 2808 2807 2805 2803 2802 2802 2801 2801 2799 2798 2797 2796 2795 2794 2792 2790 2788 2786 2784 2782 2780 2779 2778 2778 2777 2777 2777 2777 2777 2777 2777 2778
2899 2896 2894 2891 2889 2886 2884 2881 2879 2876 2874 2871 2869 2866 2864 2861 2858 2855 2852 2849 2846 2843 2839 2836 2832 2830 2826 2824 2821 2818 2817 2816 2815 2813 2811 2810 2808 2806 2805 2803 2801 2800 2800 2799 2798 2796 2795 2794 2793 2792 2791 2789 2787 2786 2783 2781 2779 2777 2776 2776 2776 2775 2774 2774 2773 2773 2773 2773 2774